Location: *
(58.4766°N, 7.6028°E)
Time: 13:04:09
(UTC+00:00)

Daily predictions for brighter satellites

Satellite Brightness Start Highest point End
(mag) Time Altitude Azimuth Time Altitude Azimuth Time Altitude Azimuth
BREEZE-M DEB (TANK) 3.9 17:55:28 10° WSW 17:59:14 40° S 18:06:07 10° ESE
CZ-4C R/B 3.0 17:57:08 10° W 18:02:58 58° N 18:09:58 10° ENE
Cosmos 2219 3.8 17:59:36 10° S 18:04:45 35° ESE 18:09:54 10° NE
Meteor 2-9 Rocket 4.2 17:59:26 10° S 18:05:07 82° ESE 18:10:39 10° NNE
COSMO-SKYMED 1 2.6 18:00:53 10° NNE 18:05:16 87° ESE 18:09:38 10° SSW
NOSS 2-1 (C) 4.3 18:01:42 10° W 18:05:27 48° N 18:10:15 10° ENE
CZ-2D R/B 3.3 18:01:44 10° SSE 18:05:33 86° WSW 18:09:24 10° NNW
Cosmos 2297 Rocket 3.1 18:03:10 10° SSE 18:07:41 25° ESE 18:12:15 10° NE
NOSS 2-1 (D) 4.3 18:04:56 10° W 18:08:42 48° N 18:13:31 10° ENE
Cosmos 1295 Rocket 4.5 18:04:39 10° NNW 18:10:53 82° ENE 18:17:02 10° SSE
Okean 1-7 Rocket 3.6 18:06:52 10° N 18:11:19 63° ENE 18:15:46 10° SSE
SJ-6B 3.4 18:08:04 10° SE 18:11:56 42° ENE 18:15:45 10° N
Nadezhda 1 Rocket 3.9 18:08:00 10° S 18:14:01 71° E 18:20:09 10° NNE
MONITOR-E 3.8 18:11:28 10° SSE 18:14:16 74° ENE 18:17:06 10° NNW
In-Cosmos 22 4.1 18:10:22 10° NNW 18:15:46 77° ENE 18:21:15 10° SSE
H-2A R/B 2.5 18:11:15 10° SE 18:15:57 42° ENE 18:20:48 10° N
CZ-4 R/B 3.4 18:13:34 10° SSW 18:17:11 33° W 18:20:53 10° NNW
NOSS 3-3 (A) 4.1 18:11:34 10° SW 18:17:47 79° SE 18:24:53 10° ENE
NOSS 3-3 (C) 4.1 18:11:40 10° SW 18:17:53 79° SE 18:24:59 10° ENE
Cosmos 1850 Rocket 4.3 18:13:56 10° NNW 18:19:00 50° NE 18:24:04 10° SE
Cosmos 1943 4.0 18:15:28 10° NW 18:20:49 39° NNE 18:26:02 10° E
Ariane Rocket 3.4 18:19:17 10° S 18:24:21 71° WSW 18:29:28 10° NNW
HJ-1C 3.5 18:21:52 10° SSE 18:25:16 80° WSW 18:28:42 10° NNW
SL-08 RB Rocket 4.5 18:21:27 10° SE 18:25:41 35° ENE 18:29:56 10° N
ASTEX 1 3.5 18:20:58 10° NNE 18:25:46 51° E 18:30:32 10° SSE
USA 234 3.4 18:19:30 10° ENE 18:26:00 60° SSE 18:32:30 10° SW
Cosmos 389 Rocket 2.8 18:22:47 10° NNW 18:26:12 67° WSW 18:29:37 10° S
Cosmos 405 Rocket 3.3 18:23:20 10° SSE 18:26:43 34° E 18:30:09 10° NNE
Cosmos 1674 3.0 18:23:11 10° N 18:26:47 43° ENE 18:30:20 10° SE
DMSP B5D1-3 4.5 18:21:51 10° NNE 18:26:58 66° ESE 18:32:02 10° S
Cosmos 407 Rocket 4.4 18:23:48 10° NW 18:28:47 51° WSW 18:33:43 10° S
Cosmos 1455 Rocket 3.7 18:26:18 10° SSE 18:30:18 33° E 18:34:19 10° NNE
Cosmos 1544 Rocket 4.4 18:26:30 10° SSE 18:30:21 29° E 18:34:12 10° NNE
Lacrosse 5 rocket 2.8 18:28:34 10° S 18:30:53 16° SE 18:32:25 13° ESE
Cosmos 2237 Rocket 3.3 18:27:01 10° NW 18:32:26 46° WSW 18:37:50 10° S
Cosmos 1437 Rocket 2.7 18:31:07 10° N 18:34:56 61° ENE 18:38:40 10° SSE
MOS 1 4.4 18:29:46 10° SSE 18:35:29 84° WSW 18:41:13 10° NNW
USA 186 1.8 18:35:03 10° SSE 18:38:28 74° ENE 18:41:50 10° NNW
Cosmos 1441 Rocket 3.5 18:34:46 10° SSW 18:38:33 71° WNW 18:42:17 10° NNE
USA 116 4.1 18:34:45 10° NNE 18:38:46 66° WNW 18:42:18 10° SSW
ERBS 4.4 18:36:56 10° W 18:39:36 21° SW 18:42:14 10° SSE
ISS -1.8 18:37:48 10° S 18:39:37 14° SSE 18:40:32 13° SE
Cosmos 2056 Rocket 3.8 18:35:37 10° S 18:40:47 46° ESE 18:45:55 10° NE
Cosmos 1939 Rocket 3.9 18:37:55 10° S 18:41:39 46° W 18:45:26 10° NNW
Cosmos 1140 Rocket 4.2 18:36:58 10° NW 18:42:03 57° WSW 18:47:05 10° S
Cosmos 1626 Rocket 3.8 18:38:21 10° N 18:42:36 49° ENE 18:46:48 10° SSE
SAR-Lupe-2 3.9 18:39:30 10° NNE 18:42:57 42° E 18:46:22 10° S
Cosmos 1461 2.9 18:41:54 10° WSW 18:45:53 78° NW 18:49:53 10° NE
Timation 2 Rocket 4.2 18:39:36 10° SW 18:46:04 77° NW 18:52:16 10° NE
Meteor 1-24 Rocket 3.8 18:40:51 10° NNW 18:46:38 70° ENE 18:52:35 10° SSE
Meteor 1-15 Rocket 4.3 18:42:03 10° S 18:47:49 67° E 18:53:42 10° NNE
Terra 3.8 18:46:54 10° ENE 18:49:21 14° NE 18:51:48 10° N
Cosmos 1741 Rocket 4.0 18:45:53 10° NNW 18:51:15 74° ENE 18:56:13 12° SE
Cosmos 1544 4.1 18:47:58 10° SSW 18:51:30 50° WNW 18:55:04 10° N
Cosmos 1624 Rocket 4.1 18:46:41 10° S 18:51:44 55° ESE 18:56:50 10° NE
NOSS 2-1 (E) 4.5 18:48:32 10° WNW 18:52:30 46° N 18:57:36 10° ENE
Okean 1 Rocket 3.7 18:52:16 10° SSW 18:56:34 58° WNW 19:00:57 10° N
Cosmos 1805 3.7 18:56:32 10° SSE 19:00:10 38° E 19:03:49 10° NNE
Spot 2 Rocket 4.1 18:57:28 17° ESE 19:00:55 40° ENE 19:05:38 10° N
CZ-2C R/B 4.2 18:57:44 10° NE 19:01:17 17° E 19:02:08 16° E
Cosmos 1758 Rocket 4.4 18:57:31 10° N 19:01:26 32° ENE 19:03:35 21° ESE
Cosmos 1603 3.8 18:56:26 10° NW 19:02:05 65° NE 19:06:20 18° SE
Cosmos 1602 Rocket 3.5 19:00:45 10° N 19:05:07 63° ENE 19:08:44 14° SSE
KORONAS-FOTON 3.7 19:01:29 10° NNW 19:05:19 87° ENE 19:09:06 10° SSE
Cosmos 1626 2.8 19:02:29 10° N 19:05:59 36° ENE 19:07:35 24° ESE
SL-16 R/B 2.8 19:00:47 10° NW 19:06:21 57° WSW 19:11:55 10° SSE
Cosmos 2181 Rocket 4.0 19:03:47 10° S 19:10:05 75° E 19:16:30 10° NNE
Meteor 1-4 Rocket 4.4 19:08:19 10° NNW 19:11:30 31° W 19:14:38 10° SSW
Resurs 1-3 3.5 19:08:41 13° SSE 19:12:35 77° ENE 19:17:01 10° NNW
Cosmos 2366 rocket 4.2 19:08:19 10° NNW 19:14:43 81° W 19:21:04 10° S
Cosmos 2218 Rocket 4.3 19:10:37 10° NNW 19:17:01 75° W 19:23:19 10° S
Cosmos 1821 Rocket 4.0 19:15:48 10° N 19:21:55 59° ENE 19:26:17 19° SE
SL-8 Rocket 4.5 19:16:14 10° NNW 19:22:20 61° W 19:28:23 10° S
RESURS DK-1 2.9 19:19:26 10° NW 19:23:30 55° WSW 19:26:21 18° SSE
Cosmos 1371 Rocket 4.1 19:18:54 10° SSW 19:24:16 87° WNW 19:29:42 10° NNE
Cosmos 1953 4.1 19:25:31 17° ENE 19:25:31 17° ENE 19:27:26 10° NE
Cosmos 1733 3.6 19:23:18 27° SE 19:24:50 41° E 19:28:28 10° NNE
Meteor 2-5 Rocket 4.5 19:19:32 10° NNW 19:25:14 57° W 19:31:00 10° S
SPOT 3 Rocket 4.2 19:21:34 10° S 19:26:38 56° WSW 19:31:44 10° NNW
ARGOS 3.3 19:21:20 10° S 19:26:44 74° WSW 19:32:10 10° NNW
Cosmos 2082 3.8 19:21:48 10° S 19:27:19 51° ESE 19:32:50 10° NE
Resurs 01 Rocket 1.6 19:26:29 19° SSE 19:29:41 85° ENE 19:34:10 10° NNW
Cosmos 2082 Rocket 4.1 19:29:56 10° NW 19:34:31 24° N 19:39:06 10° ENE
Cosmos 1452 Rocket 3.7 19:29:44 10° S 19:34:47 49° ESE 19:39:51 10° NE
CZ-2C R/B 3.2 19:30:52 15° SSE 19:35:26 89° WSW 19:41:12 10° NNW
CZ-2C R/B 3.7 19:31:05 10° NNE 19:35:36 84° WNW 19:40:01 10° SSW
Meteor 1-22 Rocket 4.3 19:29:37 10° S 19:35:41 69° E 19:41:44 10° NNE
Cosmos 1184 Rocket 3.8 19:36:37 31° ENE 19:36:37 31° ENE 19:38:55 10° NNE
SL-14 R/B 3.2 19:34:49 10° NNW 19:38:51 87° E 19:40:46 29° SSE
MetOp-A 4.2 19:34:27 15° SSE 19:38:55 83° WSW 19:44:19 10° NNW
Cosmos 2084 Rocket 3.5 19:36:41 10° SW 19:41:04 60° SE 19:43:56 21° ENE
Cosmos 2227 Rocket 2.1 19:35:28 10° SSW 19:41:08 81° SE 19:46:52 10° NE
ADEOS Rocket 3.5 19:39:07 10° NNE 19:46:28 73° ESE 19:54:13 10° S
Meteor 2-12 Rocket 4.4 19:40:40 10° NNW 19:46:48 79° ENE 19:50:51 23° SSE
Cosmos 2219 3.5 19:42:53 10° SW 19:48:38 69° NW 19:54:23 10° NE
Cosmos 1766 3.4 19:46:00 10° SSW 19:49:55 74° WNW 19:53:51 10° N
Cosmos 2297 Rocket 2.2 19:45:28 10° SW 19:51:09 88° WNW 19:56:52 10° NE
CZ-4C R/B 2.9 19:46:01 10° WNW 19:52:20 65° NNE 19:56:55 25° E
Landsat 7 4.2 19:53:05 38° ESE 19:54:24 49° ENE 19:59:01 10° N
H-2A R/B 3.0 19:50:38 10° S 19:55:25 45° W 20:00:22 10° NNW
NOSS 2-1 (C) 4.3 19:52:25 10° WNW 19:56:38 54° NNE 19:59:18 28° E
IGS 5A 3.9 19:57:31 41° E 19:58:00 43° ENE 20:01:58 10° N
Cosmos 2263 Rocket 3.8 20:01:44 17° ENE 20:01:44 17° ENE 20:03:39 10° NE
NOSS 2-1 (D) 4.3 19:55:38 10° WNW 19:59:53 55° NNE 20:02:26 29° E
Cosmos 2228 4.1 20:03:05 30° ENE 20:03:05 30° ENE 20:06:14 10° NNE
Cosmos 405 Rocket 4.5 19:59:21 10° SW 20:02:44 33° WNW 20:06:13 10° N
Cosmos 1943 3.2 19:59:39 10° NW 20:05:23 77° WSW 20:07:51 35° SSE
Cosmos 1833 Rocket 4.3 20:01:35 10° NW 20:06:18 26° NNE 20:09:54 15° ENE
Cosmos 1544 Rocket 4.5 20:03:40 10° SSW 20:08:01 50° WNW 20:12:23 10° N
Cosmos 1455 Rocket 4.3 20:03:48 10° SW 20:08:04 43° WNW 20:12:22 10° N
Lacrosse 5 rocket 2.1 20:05:42 10° SW 20:08:06 33° SSW 20:08:06 33° SSW
USA 234 3.2 20:05:27 26° E 20:09:26 81° S 20:16:02 10° W
COSMOS 2406 4.4 20:04:52 10° NW 20:10:07 34° NNE 20:12:50 23° ENE
CARTOSAT-1 3.9 20:12:59 45° ENE 20:13:16 46° ENE 20:17:26 10° N
BREEZE M DEB (TANK) 4.1 20:10:49 10° SW 20:12:29 21° SSW 20:12:29 21° SSW
CZ-4B DEB 4.4 20:14:01 79° N 20:14:01 79° N 20:17:18 10° NNW
Cosmos 1953 Rocket 3.5 20:09:38 10° NNW 20:14:10 81° ENE 20:15:05 56° SSE
ISS -1.3 20:12:50 10° SW 20:13:26 13° SW 20:13:26 13° SW
SPOT 5 3.2 20:14:48 46° ESE 20:15:50 55° ENE 20:20:54 10° NNW
Cosmos 1934 Rocket 3.9 20:11:17 10° NNW 20:17:27 85° ENE 20:20:14 35° SSE
ERS-1 Rocket 2.9 20:20:57 52° SE 20:22:07 73° ENE 20:27:10 10° NNW
Cosmos 1420 Rocket 4.2 20:19:09 10° SW 20:24:29 76° WNW 20:29:51 10° NNE
Cosmos 1461 4.2 20:21:46 10° W 20:25:27 35° NNW 20:27:42 19° NE
Terra 2.1 20:25:43 47° E 20:26:08 49° ENE 20:30:45 10° N
Cosmos 1470 2.6 20:26:31 86° E 20:26:31 86° E 20:30:30 10° NNE
Cosmos 1825 Rocket 3.9 20:23:35 10° NNW 20:27:52 59° W 20:29:01 42° SSW
Cosmos 1354 Rocket 4.2 20:24:53 10° NNW 20:30:07 57° NE 20:31:03 50° E
Cosmos 1271 Rocket 2.7 20:26:28 10° NNW 20:30:01 78° NNW 20:30:01 78° NNW
Cosmos 1110 Rocket 4.2 20:31:54 50° E 20:31:54 50° E 20:36:41 10° NE
USA 245 4.3 20:36:02 38° S 20:38:18 70° WSW 20:43:26 10° NNW
Cosmos 1174 3.8 20:34:29 10° NW 20:38:51 76° W 20:38:51 76° W
Cosmos 1758 Rocket 4.4 20:35:20 10° NNW 20:39:28 44° W 20:40:45 34° SW
Spot 2 Rocket 4.2 20:37:40 29° SSW 20:39:53 47° W 20:44:47 10° NNW
Cosmos 1626 3.8 20:37:55 10° NNW 20:41:12 30° W 20:42:09 26° WSW
CZ-2C R/B 2.6 20:37:00 10° NNE 20:42:36 69° ESE 20:43:38 56° SSE
ARGOS Delta rocket 4.3 20:42:41 48° ENE 20:42:54 48° ENE 20:47:39 10° N
NOSS 2-1 (E) 4.1 20:39:04 10° WNW 20:43:38 69° NNE 20:44:55 51° E
Cosmos 1486 Rocket 4.0 20:38:29 10° NNW 20:43:46 79° WSW 20:44:39 61° S
Cosmos 2227 4.4 20:46:45 51° E 20:46:45 51° E 20:51:33 10° NE
Cosmos 1328 4.0 20:42:52 10° NNW 20:46:31 70° NNW 20:46:31 70° NNW
Cosmos 1758 3.7 20:46:58 56° WSW 20:47:23 60° WNW 20:51:24 10° N
Cosmos 1606 Rocket 3.5 20:48:43 79° NE 20:48:43 79° NE 20:52:58 10° NNE
Cosmos 2058 Rocket 3.9 20:52:14 39° NE 20:52:14 39° NE 20:55:15 10° NNE
Meteor 1-11 4.1 20:45:55 10° NNW 20:51:34 83° ENE 20:52:27 65° SSE
Cosmos 1242 Rocket 3.6 20:50:14 10° NNW 20:52:41 41° N 20:52:41 41° N
SPOT 1/Viking Rocket 3.7 20:54:01 55° SSW 20:55:00 68° WSW 21:00:11 10° NNW
Cosmos 1727 Rocket 4.2 20:56:55 48° E 20:57:00 48° E 21:02:56 10° NNE
Cosmos 2058 4.3 20:54:17 10° N 20:57:04 29° NE 20:57:04 29° NE
Cosmos 968 Rocket 3.3 20:54:30 10° NNW 20:59:47 87° ENE 21:00:07 79° SE
Cosmos 1953 2.8 21:01:12 58° NNW 21:01:12 58° NNW 21:04:37 10° N
Nadezhda 3 Rocket 4.3 20:55:43 17° SSW 21:00:36 63° WNW 21:06:51 10° N
Cosmos 2285 Rocket 4.0 20:55:22 10° NNW 21:01:50 78° WSW 21:03:17 56° S
Cosmos 1605 Rocket 4.1 20:58:35 10° NNW 21:04:59 73° W 21:06:49 48° SSW
Meteor 2-10 4.4 21:06:04 51° ENE 21:06:04 51° ENE 21:10:25 10° NNE
DMSP B5D2-2 4.5 21:01:15 10° NNE 21:06:30 62° WNW 21:09:10 29° SW
Resurs 01 Rocket 4.0 21:04:04 12° SW 21:06:46 19° W 21:09:55 10° NW
Cosmos 1503 Rocket 3.9 21:04:33 10° NNW 21:09:49 82° WSW 21:09:56 81° SW
Helios 1A 4.5 21:10:59 29° NE 21:10:59 29° NE 21:13:57 10° N
Cosmos 1703 4.1 21:06:36 10° NNW 21:09:47 50° NW 21:09:47 50° NW
Cosmos 1339 Rocket 4.3 21:10:07 68° SE 21:10:43 74° E 21:16:48 10° NNE
Meteor 1-16 Rocket 4.1 21:10:48 74° SSE 21:11:14 79° ESE 21:16:58 10° NNE
Cosmos 2082 4.5 21:05:56 10° WSW 21:11:32 51° NW 21:17:08 10° NE
Cosmos 1726 4.2 21:13:59 21° NNE 21:13:59 21° NNE 21:15:22 10° NNE
SJ 16-02 3.8 21:10:11 10° N 21:12:38 14° NNE 21:14:05 13° NE
Thor Agena Rocket 4.0 21:12:26 10° NNE 21:16:41 49° ENE 21:16:41 49° ENE
Cosmos 2082 Rocket 3.4 21:14:56 10° NW 21:20:13 36° NNE 21:21:51 30° ENE
Cosmos 2084 Rocket 4.1 21:16:16 10° W 21:20:29 57° NNW 21:20:29 57° NNW
Cosmos 2100 Rocket 3.9 21:17:56 10° NNW 21:24:19 79° ENE 21:24:56 72° SE
IRAS Rocket 4.4 21:24:28 58° ENE 21:24:32 58° ENE 21:29:56 10° NNW
Cosmos 2227 Rocket 3.6 21:20:30 10° W 21:25:46 37° NNW 21:31:03 10° NE
Cosmos 1153 Rocket 4.5 21:20:30 10° NNW 21:26:48 74° W 21:27:46 62° SSW
ALOS 2 4.1 21:36:29 29° NNE 21:36:29 29° NNE 21:39:26 10° N
Cosmos 2297 Rocket 3.8 21:30:46 10° W 21:35:55 34° NNW 21:41:04 10° NE
Cosmos 1076 Rocket 4.4 21:32:01 10° NNW 21:35:10 47° N 21:35:10 47° N
Geosat 4.3 21:36:55 60° NNE 21:36:55 60° NNE 21:41:41 10° NNW
Cosmos 1331 Rocket 4.1 21:36:45 71° WNW 21:36:57 72° NW 21:42:14 10° NNE
Cosmos 1725 Rocket 4.1 21:31:21 10° N 21:37:28 58° ENE 21:37:37 58° ENE
Cosmos 2228 4.0 21:39:54 44° WNW 21:39:54 44° WNW 21:44:00 10° N
CZ-4C R/B 2.7 21:34:33 10° WNW 21:41:15 71° SW 21:42:04 66° S
Cosmos 2263 Rocket 2.3 21:43:24 66° NE 21:43:24 66° NE 21:48:16 10° NE
Cosmos 2173 Rocket 3.9 21:36:40 10° NNW 21:43:06 88° W 21:43:33 79° S
Cosmos 2151 4.5 21:41:24 10° N 21:43:58 32° NNE 21:43:58 32° NNE
NOSS 2-1 (C) 4.4 21:42:43 10° WNW 21:46:38 60° W 21:46:38 60° W
Cosmos 1459 Rocket 3.8 21:44:06 10° NNW 21:50:10 81° W 21:50:19 80° WSW
Cosmos 839 Rocket 3.9 21:44:04 10° NW 21:50:14 72° SW 21:50:14 72° SW
Cosmos 1777 Rocket 4.2 21:45:06 10° NNW 21:49:47 66° N 21:49:47 66° N
NOSS 2-1 (D) 4.4 21:45:56 10° WNW 21:49:45 57° W 21:49:45 57° W
Cosmos 1833 Rocket 3.1 21:45:54 10° NW 21:51:26 53° NE 21:51:35 53° NE
USA 234 3.1 21:52:48 70° SSW 21:52:48 70° SSW 21:59:21 10° WNW
SPOT 5 4.1 21:54:02 33° W 21:54:11 33° W 21:58:51 10° NNW
COSMOS 2406 3.2 21:49:21 10° NW 21:54:52 80° N 21:54:52 80° N
ATLAS CENTAUR R/B 4.3 22:04:44 11° NE 22:04:44 11° NE 22:04:54 10° NE
Terra 3.1 22:04:36 34° W 22:04:36 34° W 22:08:28 10° NNW
MOS 1 Rocket 3.9 21:59:46 10° N 22:04:26 57° NW 22:04:26 57° NW
Cosmos 1000 Rocket 4.5 22:09:55 72° NE 22:09:55 72° NE 22:15:35 10° NNE
SL-08 R/B 4.4 22:04:01 10° NNW 22:10:19 87° N 22:10:19 87° N
In-Cosmos 22 Rocket 4.4 22:07:04 10° NNW 22:11:37 63° NNW 22:11:37 63° NNW
Cosmos 2233 Rocket 4.1 22:06:21 10° N 22:12:15 64° ENE 22:12:15 64° ENE
Cosmos 1802 Rocket 4.1 22:07:35 10° NNW 22:13:54 69° W 22:14:01 69° WSW
Cosmos 371 Rocket 4.2 22:15:11 47° NNW 22:15:11 47° NNW 22:19:08 10° NNE
Cosmos 1898 Rocket 4.5 22:15:31 10° NNW 22:20:09 41° NE 22:20:09 41° NE
Cosmos 2016 Rocket 4.0 22:14:29 10° NNW 22:20:23 71° W 22:20:23 71° W
CZ-2C R/B 4.2 22:17:40 10° N 22:22:36 33° NW 22:25:08 23° W
Mayak 0.7 22:26:58 10° NNE 22:28:47 25° NNE 22:28:47 25° NNE
Cosmos 2061 Rocket 4.3 22:26:14 10° NNW 22:32:31 60° W 22:32:31 60° W
Cosmos 1238 Rocket 4.2 22:35:45 10° N 22:39:34 52° NNE 22:39:34 52° NNE
Cosmos 1844 Rocket 3.5 22:52:56 43° NE 22:52:56 43° NE 22:56:43 10° NE
SJ 16-02 3.1 22:48:16 10° NNW 22:51:03 30° N 22:51:03 30° N
Cosmos 1464 Rocket 4.2 22:55:22 10° N 23:01:30 63° ENE 23:01:30 63° ENE
Cosmos 2082 Rocket 2.7 22:59:11 10° NW 23:03:40 56° NW 23:03:40 56° NW
Meteor 2-3 Rocket 4.1 23:04:17 10° NNW 23:08:50 60° N 23:08:50 60° N
Cosmos 2227 Rocket 4.4 23:06:50 10° WNW 23:11:23 24° N 23:15:56 10° NE
ALOS 2 4.5 23:13:53 26° NW 23:13:53 26° NW 23:16:01 10° NNW
Cosmos 2123 Rocket 4.2 23:16:22 67° NW 23:16:22 67° NW 23:22:26 10° N
Meteor 2-10 Rocket 4.4 23:20:58 49° NE 23:20:58 49° NE 23:25:11 10° NNE
Cosmos 2297 Rocket 4.4 23:17:05 10° NW 23:21:35 23° N 23:26:05 10° NE
Cosmos 2034 Rocket 4.2 23:16:02 10° N 23:21:48 63° NE 23:21:48 63° NE
Cosmos 2263 Rocket 3.5 23:25:03 28° WNW 23:27:06 36° NNW 23:32:20 10° NE
Cosmos 1607 4.1 23:28:03 69° N 23:28:03 69° N 23:33:47 10° NE
H-2A R/B 4.3 23:28:59 19° NE 23:28:59 19° NE 23:31:49 10° N
Cosmos 2221 4.5 23:31:21 26° NNE 23:31:21 26° NNE 23:33:20 10° NNE
CZ-4C R/B 4.2 23:23:23 10° WNW 23:27:14 25° W 23:27:14 25° W
SL-16 R/B 3.6 23:28:50 32° E 23:30:30 38° NE 23:36:12 10° NNW
Cosmos 1833 Rocket 3.9 23:30:01 10° NW 23:33:15 32° WNW 23:33:15 32° WNW
ATLAS CENTAUR R/B 3.2 23:40:57 34° NNE 23:40:57 34° NNE 23:44:04 10° ENE
CZ-2D R/B 4.4 23:39:14 10° NE 23:41:54 14° E 23:42:11 14° E
Cosmos 1844 4.1 23:44:05 61° N 23:44:05 61° N 23:48:56 10° NE
Cosmos 1818 4.4 23:49:12 44° NW 23:49:55 47° NNW 23:55:13 10° ENE
Cosmos 2278 Rocket 2.9 23:54:10 46° ENE 23:54:10 46° ENE 23:58:20 10° NE
